This is the latest recevied weather packets stored in our database for station/object K7NDG. If no packets are shown the sender has not sent any weather packets the latest 10 day(s).
| Time | Temp. | Humidity | Pressure | Rain* | Wind** | Luminosity | Snow |
|---|---|---|---|---|---|---|---|
| 1777589054 | 26.11° C | 35% | 1017.3 hPa | 0 mm | - | 636 W/m² | - |
| 1777588750 | 25.56° C | 35% | 1017.4 hPa | 0 mm | - | 617 W/m² | - |
| 1777588446 | 25.56° C | 37% | 1017.5 hPa | 0 mm | - | 648 W/m² | - |
| 1777588141 | 25.56° C | 33% | 1017.6 hPa | 0 mm | - | 688 W/m² | - |
| 1777587838 | 25° C | 34% | 1017.7 hPa | 0 mm | - | 701 W/m² | - |
| 1777587537 | 25.56° C | 35% | 1017.7 hPa | 0 mm | - | 706 W/m² | - |
| 1777587233 | 26.11° C | 38% | 1017.9 hPa | 0 mm | - | 708 W/m² | - |
| 1777586929 | 25.56° C | 40% | 1018 hPa | 0 mm | - | 575 W/m² | - |
| 1777586625 | 25.56° C | 35% | 1017.8 hPa | 0 mm | - | 652 W/m² | - |
| 1777586321 | 25.56° C | 39% | 1017.9 hPa | 0 mm | - | 636 W/m² | - |
| 1777586019 | 25.56° C | 40% | 1018.2 hPa | 0 mm | - | 696 W/m² | - |
| 1777585719 | 25° C | 40% | 1018.2 hPa | 0 mm | - | 689 W/m² | - |
| 1777585419 | 25° C | 40% | 1018.1 hPa | 0 mm | - | 689 W/m² | - |
| 1777585114 | 25° C | 41% | 1018.4 hPa | 0 mm | - | 712 W/m² | - |
| 1777584811 | 24.44° C | 44% | 1018.3 hPa | 0 mm | - | 714 W/m² | - |
| 1777584509 | 23.89° C | 43% | 1018.4 hPa | 0 mm | - | 717 W/m² | - |
| 1777584205 | 23.89° C | 41% | 1018.3 hPa | 0 mm | - | 538 W/m² | - |
| 1777583904 | 23.89° C | 44% | 1018.1 hPa | 0 mm | - | 308 W/m² | - |
| 1777583600 | 23.89° C | 45% | 1018.3 hPa | 0 mm | - | 294 W/m² | - |
| 1777583299 | 23.89° C | 45% | 1018.4 hPa | 0 mm | - | 585 W/m² | - |
| 1777582994 | 23.89° C | 46% | 1018.3 hPa | 0 mm | - | 601 W/m² | - |
| 1777582692 | 23.89° C | 45% | 1018.8 hPa | 0 mm | - | 480 W/m² | - |
| 1777582392 | 24.44° C | 43% | 1018.4 hPa | 0 mm | - | 472 W/m² | - |
| 1777582091 | 25° C | 47% | 1018.6 hPa | 0 mm | - | 344 W/m² | - |
| 1777581785 | 24.44° C | 50% | 1018.7 hPa | 0 mm | - | 369 W/m² | - |
* Rain latest hour (hover to see other rain measurements)
** Current wind speed in m/s (hover to see current wind gust speed)